This demonstration page uses our WeatherBlox Daily Observations layout. Learn more.

Left ArrowRight Arrow

39.12711, -84.51439

Hourly Observations for September 5, 2016

Temp ( °F °C ) Dew Point ( °F °C ) Humidity (%) Winds ( mph kmh ) Pressure ( in mb ) Visibility ( mi km ) Precip ( " mm )
12:53 am 00:53 Clear 61 16.1 61 16.1 100 100 Calm 30.20 1023 8 13 0.00 0.00
1:19 am 01:19 Clear with Mist and Fog 61 16.1 61 16.1 100 100 Calm 30.21 1023 2 3 0.00 0.00
1:28 am 01:28 Clear with Mist and Fog 61 16.1 61 16.1 100 100 Calm 30.21 1023 6 10 0.00 0.00
1:39 am 01:39 Clear with Mist and Fog 60 15.6 60 15.6 100 100 Calm 30.21 1023 1 2 0.00 0.00
1:50 am 01:50 Clear with Mist and Fog 61 16 61 16 100 100 Calm 30.21 1023 3 5 0.00 0.00
1:53 am 01:53 Clear with Mist and Fog 61 16.1 61 16.1 100 100 Calm 30.19 1023 6 10 0.00 0.00
2:53 am 02:53 Clear with Mist and Fog 60 15.6 60 15.6 100 100 Calm 30.20 1023 3 4 0.00 0.00
3:06 am 03:06 Clear with Mist and Fog 61 16 61 16 100 100 Calm 30.21 1023 4 6 0.00 0.00
3:10 am 03:10 Clear with Mist and Fog 59 15 59 15 100 100 Calm 30.21 1023 2 3 0.00 0.00
3:22 am 03:22 Clear with Mist and Fog 59 15 59 15 100 100 Calm 30.21 1023 3 5 0.00 0.00
3:41 am 03:41 Clear with Mist and Fog 58 14.4 58 14.4 100 100 Calm 30.21 1023 2 2 0.00 0.00
3:50 am 03:50 Clear with Fog 59 15 59 15 100 100 Calm 30.21 1023 1 1 0.00 0.00
3:53 am 03:53 Clear with Mist and Fog 60 15.6 60 15.6 100 100 Calm 30.20 1023 1 1 0.00 0.00
3:58 am 03:58 Clear with Mist and Fog 60 15.6 60 15.6 100 100 Calm 30.21 1023 3 5 0.00 0.00
4:25 am 04:25 Clear with Mist and Fog 59 15 59 15 100 100 Calm 30.21 1023 2 3 0.00 0.00
4:42 am 04:42 Clear with Mist and Fog 57 14 57 14 100 100 Calm 30.21 1023 3 5 0.00 0.00
4:53 am 04:53 Clear with Mist and Fog 59 15 59 15 100 100 Calm 30.20 1023 6 10 0.00 0.00
5:16 am 05:16 Clear with Mist and Fog 57 14 57 14 100 100 Calm 30.21 1023 2 3 0.00 0.00
5:26 am 05:26 Clear with Mist and Fog 59 15 59 15 100 100 NE 3 6 30.21 1023 4 6 0.00 0.00
5:53 am 05:53 Clear 59 15 59 15 100 100 N 3 6 30.21 1023 7 11 0.00 0.00
6:53 am 06:53 Clear with Patchy Fog 59 15 59 15 100 100 Calm 30.22 1023 4 6 0.00 0.00
7:10 am 07:10 Clear with Patchy Fog 57 14 57 14 100 100 Calm 30.24 1024 2 2 0.00 0.00
7:17 am 07:17 Sunny with Patchy Fog 58 14.4 58 14.4 100 100 Calm 30.24 1024 4 6 0.00 0.00
7:53 am 07:53 Sunny with Patchy Fog 60 15.6 60 15.6 100 100 Calm 30.23 1024 6 10 0.00 0.00
8:53 am 08:53 Sunny 65 18.3 64 17.8 97 97 Calm 30.24 1024 9 14 0.00 0.00
9:53 am 09:53 Sunny 69 20.6 65 18.3 87 87 Calm 30.24 1024 10 16 0.00 0.00
10:53 am 10:53 Sunny 76 24.4 66 18.9 72 72 Calm 30.24 1024 10 16 0.00 0.03
11:53 am 11:53 Sunny 81 27.2 68 20 65 65 VRB 3 6 30.22 1023 10 16 0.00 0.03
12:53 pm 12:53 Sunny 84 28.9 68 20 59 59 S 7 11 30.21 1023 10 16 0.00 0.00
1:53 pm 13:53 Sunny 86 30 66 18.9 51 51 SW 5 7 30.19 1023 10 16 0.00 0.00
2:53 pm 14:53 Partly Cloudy 88 31.1 68 20 52 52 S 6 9 30.18 1022 10 16 0.00 0.00
3:53 pm 15:53 Partly Cloudy 87 30.6 65 18.3 48 48 SSW 9 15 30.15 1021 10 16 0.00 0.00
4:53 pm 16:53 Partly Cloudy 86 30 65 18.3 49 49 WSW 6 9 30.14 1021 10 16 0.00 0.00
5:53 pm 17:53 Partly Cloudy 87 30.6 66 18.9 50 50 VRB 3 6 30.13 1020 10 16 0.00 0.00
6:53 pm 18:53 Sunny 83 28.3 73 22.8 72 72 SSE 5 7 30.13 1020 10 16 0.00 0.00
7:53 pm 19:53 Sunny 77 25 72 22.2 85 85 S 3 6 30.13 1020 10 16 0.00 0.00
8:53 pm 20:53 Clear 73 22.8 70 21.1 90 90 Calm 30.14 1021 10 16 0.00 0.00
9:53 pm 21:53 Clear 70 21.1 69 20.6 97 97 Calm 30.16 1021 10 16 0.00 0.00
10:53 pm 22:53 Clear 69 20.6 69 20.6 100 100 Calm 30.17 1022 10 16 0.00 0.00
11:53 pm 23:53 Clear 69 20.6 69 20.6 100 100 Calm 30.17 1022 7 11 0.00 0.00

Powered by AerisWeather